Location: Banff
(51.1670°N, 115.5670°W)
Time: 19:29:29
(UTC-06:00)

Amateur Radio Satellites - All Passes

Search period start: 28 March 2017 18:59
Search period end: 29 March 2017 18:59
Location: Banff, 51.1670°N, 115.5670°W

Satellite Date Start Highest point End Downlink Frequencies (MHz)
Time Altitude Azimuth
CUBESAT XI-V 28 Mar 19:23:17 19:27:42 44° 292° (WNW) 19:32:08 437.345
KKS-1 28 Mar 19:25:28 19:29:32 35° 295° (WNW) 19:33:36 437.445
M-CUBED/EXP-1 PRIME 28 Mar 19:26:58 19:30:20 19° 96° (E) 19:33:41 437.505
YUBILEINY 28 Mar 19:29:50 19:38:35 76° 77° (ENE) 19:47:19 435.215
AAUSAT CUBESAT 2 28 Mar 19:30:35 19:32:36 13° 57° (ENE) 19:34:37 437.432
O/OREOS (USA 219) 28 Mar 19:31:56 19:35:40 24° 314° (NW) 19:39:28 437.305
UWE-3 28 Mar 19:33:34 19:36:13 15° 56° (ENE) 19:38:50 435.000/436.395/437.385
XW-2A 28 Mar 19:33:45 19:36:57 37° 69° (ENE) 19:40:10 145.665 - 145.685
DOVE 4 28 Mar 19:36:04 19:40:29 35° 266° (W) 19:45:10 437.250
STRAND 1 28 Mar 19:38:00 19:39:15 11° 83° (E) 19:40:29 437.568
XW-2F 28 Mar 19:42:23 19:45:43 29° 264° (W) 19:49:04 145.980 - 146.000
PCSat 28 Mar 19:43:38 19:48:47 44° 243° (WSW) 19:53:54 145.827
LilacSat-2 28 Mar 19:48:29 19:51:38 24° 266° (W) 19:54:48 437.200
SEEDS 28 Mar 19:51:20 19:55:07 35° 67° (ENE) 19:58:55 437.485
STARS 28 Mar 19:54:46 19:58:51 37° 294° (WNW) 20:02:54 437.465
CUTE-I 28 Mar 19:55:55 20:00:48 35° 264° (W) 20:05:42 437.470
Oscar 11 28 Mar 19:57:52 19:59:31 12° 54° (NE) 20:01:08 .
NUDT-PHONESAT 28 Mar 20:00:59 20:03:58 22° 267° (W) 20:06:57 437.300
HO-68 28 Mar 20:01:52 20:09:02 83° 70° (ENE) 20:16:14 435.675
CUTE 1.7 + AOD 2 28 Mar 20:02:29 20:06:38 65° 73° (ENE) 20:10:49 437.475
ZACube-1 28 Mar 20:08:12 20:11:17 19° 59° (ENE) 20:14:21 437.345
CUBEBUG 2 28 Mar 20:10:12 20:14:40 43° 68° (ENE) 20:19:05 437.445
XW-2D 28 Mar 20:11:16 20:13:33 15° 270° (W) 20:15:50 145.860 - 145.880
KAITUO 1B 28 Mar 20:11:57 20:14:32 18° 269° (W) 20:17:07 145.475/437.950
XW-2B 28 Mar 20:17:38 20:19:37 14° 271° (W) 20:21:36 145.730 - 145.750
SO-50 28 Mar 20:23:42 20:26:29 16° 7° (N) 20:29:14 436.795
XW-2C 28 Mar 20:29:13 20:30:04 11° 273° (W) 20:30:55 145.795 - 145.815
RS-15 28 Mar 20:31:49 20:44:06 59° 32° (NNE) 20:55:58 29.354- 29.394
AO-73 28 Mar 20:34:15 20:38:02 27° 64° (ENE) 20:41:46 145.935
ISS 28 Mar 20:42:46 20:43:44 11° 137° (SE) 20:44:43 437.550
M-CUBED/EXP-1 PRIME 28 Mar 21:00:31 21:05:08 68° 294° (WNW) 21:09:47 437.505
AO-85 28 Mar 21:00:46 21:03:59 20° 117° (ESE) 21:07:04 145.980
AAUSAT CUBESAT 2 28 Mar 21:03:21 21:07:27 87° 252° (WSW) 21:11:36 437.432
XW-2A 28 Mar 21:07:22 21:09:52 19° 268° (W) 21:12:23 145.665 - 145.685
UWE-3 28 Mar 21:07:24 21:12:03 89° 90° (E) 21:16:39 435.000/436.395/437.385
STRAND 1 28 Mar 21:14:17 21:19:25 68° 103° (ESE) 21:24:29 437.568
SEEDS 28 Mar 21:27:17 21:30:53 28° 266° (W) 21:34:29 437.485
YUBILEINY 28 Mar 21:27:28 21:34:36 30° 280° (W) 21:41:44 435.215
Oscar 11 28 Mar 21:30:36 21:34:54 75° 74° (ENE) 21:39:14 .
CUTE 1.7 + AOD 2 28 Mar 21:40:21 21:42:55 16° 271° (W) 21:45:31 437.475
ZACube-1 28 Mar 21:42:37 21:47:07 69° 257° (WSW) 21:51:35 437.345
CUBEBUG 2 28 Mar 21:47:17 21:51:24 29° 266° (W) 21:55:29 437.445
HO-68 28 Mar 21:52:02 21:57:36 24° 271° (W) 22:03:13 435.675
DELFI C3 28 Mar 22:00:18 22:04:05 49° 70° (ENE) 22:07:54 145.870
SO-50 28 Mar 22:04:19 22:08:19 30° 31° (NNE) 22:12:18 436.795
Tancredo 1 28 Mar 22:04:57 22:07:57 40° 154° (SSE) 22:10:58 437.200
PRISM 28 Mar 22:05:32 22:06:31 11° 86° (E) 22:07:29 437.425
AO-73 28 Mar 22:09:51 22:14:08 42° 262° (W) 22:18:21 145.935
ISS 28 Mar 22:16:26 22:19:34 44° 155° (SSE) 22:22:44 437.550
M-CUBED/EXP-1 PRIME 28 Mar 22:36:23 22:38:49 14° 312° (NW) 22:41:16 437.505
ESTCUBE 1 28 Mar 22:39:03 22:41:40 15° 56° (NE) 22:44:17 437.505/2401.250
AO-85 28 Mar 22:39:49 22:44:04 64° 315° (NW) 22:48:05 145.980
AAUSAT CUBESAT 2 28 Mar 22:42:44 22:43:35 11° 275° (W) 22:44:28 437.432
RS-15 28 Mar 22:44:58 22:57:05 66° 240° (WSW) 23:08:42 29.354- 29.394
UWE-3 28 Mar 22:46:53 22:49:08 13° 274° (W) 22:51:22 435.000/436.395/437.385
LO-87 28 Mar 22:48:53 22:51:46 23° 64° (ENE) 22:54:40 145.935 - 145.965
STRAND 1 28 Mar 22:54:13 22:58:09 23° 303° (WNW) 23:02:03 437.568
Oscar 11 28 Mar 23:09:12 23:11:35 14° 272° (W) 23:13:57 .
BEESAT 3 28 Mar 23:27:22 23:31:15 57° 126° (SE) 23:35:11 437.485
TIGRISAT 28 Mar 23:28:13 23:32:19 36° 96° (E) 23:36:19 435.000
DELFI C3 28 Mar 23:36:24 23:39:09 18° 269° (W) 23:41:56 145.870
PRISM 28 Mar 23:38:16 23:42:27 86° 102° (ESE) 23:46:38 437.425
UNISAT 6 28 Mar 23:39:06 23:43:26 49° 99° (E) 23:47:37 437.425
VELOX 1 28 Mar 23:39:30 23:42:39 19° 58° (ENE) 23:45:48 145.980
Tancredo 1 28 Mar 23:40:46 23:43:58 84° 356° (N) 23:47:10 437.200
SO-50 28 Mar 23:44:39 23:49:09 66° 232° (SW) 23:53:36 436.795
BEESAT 2 28 Mar 23:49:02 23:52:47 41° 123° (ESE) 23:56:35 435.950
ISS 28 Mar 23:52:39 23:55:57 83° 355° (N) 23:59:16 437.550
SPROUT 29 Mar 00:03:17 00:06:48 25° 63° (ENE) 00:10:21 437.525
FO-29 29 Mar 00:03:46 00:09:43 51° 98° (E) 00:15:01 435.910
QB50P2 29 Mar 00:11:58 00:13:32 12° 86° (E) 00:15:06 145.880/145.840
ESTCUBE 1 29 Mar 00:13:23 00:17:52 87° 261° (W) 00:22:23 437.505/2401.250
DUCHIFAT 1 29 Mar 00:20:22 00:21:30 11° 86° (E) 00:22:38 145.980
LO-87 29 Mar 00:21:44 00:25:04 34° 263° (W) 00:28:27 145.935 - 145.965
AO-85 29 Mar 00:22:18 00:25:10 18° 336° (NNW) 00:27:58 145.980
O/OREOS (USA 219) 29 Mar 00:39:21 00:40:51 11° 31° (NNE) 00:42:20 437.305
DX 1 29 Mar 00:43:00 00:46:51 32° 64° (ENE) 00:50:46 434.975-435.025
AIST 2D 29 Mar 00:48:20 00:51:38 37° 98° (E) 00:54:54 435.315
RS-15 29 Mar 00:59:21 01:06:59 20° 265° (W) 01:14:29 29.354- 29.394
50 SAT 29 Mar 01:03:30 01:06:55 65° 73° (ENE) 01:10:23 437.505
TIGRISAT 29 Mar 01:05:04 01:08:57 30° 296° (WNW) 01:12:44 435.000
BEESAT 3 29 Mar 01:05:40 01:09:07 28° 327° (NNW) 01:12:37 437.485
NANOSAT C BR1 29 Mar 01:05:49 01:09:40 32° 96° (E) 01:13:27 145.865
EO-79 29 Mar 01:12:02 01:16:04 40° 98° (E) 01:20:03 145.935-145.965
VELOX 1 29 Mar 01:14:17 01:18:40 65° 257° (WSW) 01:23:07 145.980
PRISM 29 Mar 01:14:57 01:17:10 14° 304° (NW) 01:19:23 437.425
UNISAT 6 29 Mar 01:16:20 01:19:52 24° 299° (WNW) 01:23:20 437.425
Tancredo 1 29 Mar 01:16:56 01:20:08 81° 193° (SSW) 01:23:20 437.200
UKube-1 29 Mar 01:17:14 01:21:22 47° 68° (ENE) 01:25:33 .
BEESAT 2 29 Mar 01:26:57 01:30:38 34° 323° (NW) 01:34:23 435.950
SO-50 29 Mar 01:27:44 01:28:44 11° 252° (WSW) 01:29:45 436.795
ISS 29 Mar 01:29:10 01:32:29 78° 193° (SSW) 01:35:46 437.550
SPROUT 29 Mar 01:38:25 01:42:32 43° 262° (W) 01:46:40 437.525
POLYITAN 1 29 Mar 01:40:56 01:45:12 78° 104° (ESE) 01:49:24 437.675
QB50P2 29 Mar 01:45:42 01:49:59 88° 283° (WNW) 01:54:12 145.880/145.840
FO-29 29 Mar 01:49:11 01:54:35 33° 302° (WNW) 01:59:29 435.910
DUCHIFAT 1 29 Mar 01:53:37 01:57:52 87° 100° (E) 02:02:03 145.980
ESTCUBE 1 29 Mar 01:53:39 01:55:22 12° 274° (W) 01:57:07 437.505/2401.250
BUGSAT 1 29 Mar 01:58:46 02:02:40 36° 97° (E) 02:06:30 437.445
AO-85 29 Mar 02:05:37 02:07:06 12° 1° (N) 02:08:35 145.980
O/OREOS (USA 219) 29 Mar 02:17:05 02:21:31 43° 54° (NE) 02:25:55 437.305
DX 1 29 Mar 02:19:02 02:23:01 34° 263° (W) 02:27:02 434.975-435.025
MOZHAYETS 4 29 Mar 02:21:10 02:22:27 11° 52° (NE) 02:23:44
AIST 2D 29 Mar 02:22:05 02:24:39 19° 296° (WNW) 02:27:12 435.315
Oscar 19 29 Mar 02:23:55 02:28:11 25° 92° (E) 02:32:26 437.125/150
BEESAT 29 Mar 02:25:34 02:29:28 26° 60° (ENE) 02:33:23 436.000
50 SAT 29 Mar 02:39:15 02:40:23 11° 272° (W) 02:41:31 437.505
NANOSAT C BR1 29 Mar 02:41:36 02:45:21 31° 295° (WNW) 02:49:05 145.865
ITUPSAT 1 29 Mar 02:43:11 02:47:29 34° 64° (ENE) 02:51:48 437.325
BEESAT 3 29 Mar 02:46:07 02:47:59 13° 350° (N) 02:49:50 437.485
EO-79 29 Mar 02:48:08 02:51:41 26° 297° (WNW) 02:55:12 145.935-145.965
Tancredo 1 29 Mar 02:53:16 02:55:59 26° 212° (SSW) 02:58:42 437.200
UKube-1 29 Mar 02:54:14 02:57:39 22° 267° (W) 03:01:05 .
Gurwin Techsat 1B 29 Mar 03:00:12 03:04:54 31° 94° (E) 03:09:35 435.225
ISS 29 Mar 03:05:54 03:08:39 24° 214° (SSW) 03:11:23 437.550
BEESAT 2 29 Mar 03:07:22 03:09:32 14° 346° (NNW) 03:11:43 435.950
POLYITAN 1 29 Mar 03:17:55 03:20:27 16° 303° (WNW) 03:22:57 437.675
KKS-1 29 Mar 03:19:42 03:20:14 10° 50° (NE) 03:20:45 437.445
QB50P2 29 Mar 03:23:01 03:25:08 14° 305° (NW) 03:27:15 145.880/145.840
DUCHIFAT 1 29 Mar 03:30:42 03:32:56 14° 304° (NW) 03:35:10 145.980
BUGSAT 1 29 Mar 03:34:20 03:37:56 28° 296° (WNW) 03:41:27 437.445
AO-85 29 Mar 03:46:01 03:48:59 20° 26° (NNE) 03:51:56 145.980
MOZHAYETS 4 29 Mar 03:54:12 03:58:44 62° 71° (ENE) 04:03:16
O/OREOS (USA 219) 29 Mar 03:56:48 04:00:47 29° 254° (WSW) 04:04:46 437.305
BEESAT 29 Mar 04:02:19 04:06:58 52° 259° (W) 04:11:41 436.000
Oscar 19 29 Mar 04:02:47 04:07:50 56° 292° (WNW) 04:12:54 437.125/150
ITAMSAT 1 29 Mar 04:16:57 04:21:20 26° 93° (E) 04:25:39 435.822/435.867
ITUPSAT 1 29 Mar 04:20:50 04:25:16 37° 263° (W) 04:29:45 437.325
BEESAT 3 29 Mar 04:25:04 04:27:12 14° 14° (NNE) 04:29:19 437.485
AO-7 29 Mar 04:39:45 04:47:18 37° 96° (E) 04:54:49 .
Gurwin Techsat 1B 29 Mar 04:39:57 04:45:04 48° 294° (WNW) 04:50:09 435.225
BEESAT 2 29 Mar 04:47:00 04:48:56 13° 10° (N) 04:50:52 435.950
KKS-1 29 Mar 04:51:28 04:55:52 57° 70° (ENE) 05:00:17 437.445
CUBESAT XI-V 29 Mar 04:54:11 04:58:33 46° 68° (ENE) 05:02:58 437.345
STARS 29 Mar 05:19:36 05:23:54 51° 69° (ENE) 05:28:14 437.465
AO-85 29 Mar 05:26:00 05:29:57 83° 52° (NE) 05:33:56 145.980
MOZHAYETS 4 29 Mar 05:33:03 05:36:18 19° 270° (W) 05:39:35
Oscar 19 29 Mar 05:44:14 05:46:08 12° 312° (NW) 05:48:01 437.125/150
ITAMSAT 1 29 Mar 05:56:02 06:01:07 54° 292° (WNW) 06:06:08 435.822/435.867
BEESAT 3 29 Mar 06:02:13 06:05:56 33° 37° (NE) 06:09:37 437.485
M-CUBED/EXP-1 PRIME 29 Mar 06:17:06 06:20:50 45° 62° (ENE) 06:24:54 437.505
Gurwin Techsat 1B 29 Mar 06:22:38 06:23:48 11° 314° (NW) 06:25:00 435.225
BEESAT 2 29 Mar 06:24:26 06:27:58 28° 33° (NNE) 06:31:31 435.950
KKS-1 29 Mar 06:29:28 06:32:46 20° 269° (W) 06:36:07 437.445
CUTE-I 29 Mar 06:29:53 06:31:04 11° 83° (E) 06:32:16 437.470
CUBESAT XI-V 29 Mar 06:32:20 06:36:09 25° 267° (W) 06:39:59 437.345
AO-7 29 Mar 06:32:24 06:40:35 65° 298° (WNW) 06:48:45 .
YUBILEINY 29 Mar 06:44:47 06:50:07 18° 72° (ENE) 06:55:27 435.215
STARS 29 Mar 06:57:05 07:00:31 22° 268° (W) 07:04:00 437.465
STRAND 1 29 Mar 06:57:13 07:01:35 29° 60° (ENE) 07:05:57 437.568
AO-85 29 Mar 07:07:44 07:09:47 14° 247° (WSW) 07:11:50 145.980
XW-2F 29 Mar 07:09:29 07:12:16 20° 92° (E) 07:15:02 145.980 - 146.000
LilacSat-2 29 Mar 07:16:03 07:19:12 25° 94° (E) 07:22:20 437.200
NUDT-PHONESAT 29 Mar 07:25:50 07:28:53 24° 94° (E) 07:31:55 437.300
HO-68 29 Mar 07:27:02 07:29:05 11° 80° (E) 07:31:08 435.675
DOVE 4 29 Mar 07:28:50 07:34:02 51° 98° (E) 07:39:08 437.250
NO-84 29 Mar 07:35:14 07:37:46 28° 142° (SE) 07:40:18 435.350 FM
KAITUO 1B 29 Mar 07:36:47 07:40:08 31° 96° (E) 07:43:28 145.475/437.950
XW-2D 29 Mar 07:36:50 07:40:25 39° 98° (E) 07:43:57 145.860 - 145.880
ITAMSAT 1 29 Mar 07:37:44 07:39:30 12° 313° (NW) 07:41:16 435.822/435.867
BEESAT 3 29 Mar 07:39:48 07:43:38 43° 237° (WSW) 07:47:26 437.485
XW-2B 29 Mar 07:42:50 07:46:28 44° 99° (E) 07:50:03 145.730 - 145.750
M-CUBED/EXP-1 PRIME 29 Mar 07:52:28 07:55:33 22° 263° (W) 07:58:50 437.505
XW-2C 29 Mar 07:53:06 07:56:49 59° 100° (E) 08:00:32 145.795 - 145.815
BEESAT 2 29 Mar 08:02:01 08:06:02 59° 234° (SW) 08:10:01 435.950
CUTE-I 29 Mar 08:06:51 08:12:12 65° 103° (ESE) 08:17:30 437.470
XW-2A 29 Mar 08:23:42 08:26:13 19° 93° (E) 08:28:43 145.665 - 145.685
AO-7 29 Mar 08:26:02 08:31:58 23° 321° (NW) 08:37:54 .
STRAND 1 29 Mar 08:35:31 08:40:32 52° 260° (W) 08:45:35 437.568
YUBILEINY 29 Mar 08:36:40 08:45:20 72° 95° (E) 08:54:00 435.215
FO-29 29 Mar 08:39:31 08:42:57 14° 43° (NE) 08:46:16 435.910
AAUSAT CUBESAT 2 29 Mar 08:42:35 08:43:33 11° 85° (E) 08:44:32 437.432
XW-2F 29 Mar 08:43:04 08:46:36 40° 290° (WNW) 08:50:07 145.980 - 146.000
LilacSat-2 29 Mar 08:50:09 08:53:33 33° 292° (WNW) 08:56:57 437.200
PCSat 29 Mar 08:51:46 08:52:43 10° 101° (E) 08:53:40 145.827
UWE-3 29 Mar 08:53:44 08:55:35 12° 86° (E) 08:57:25 435.000/436.395/437.385
TIGRISAT 29 Mar 08:58:40 08:59:56 11° 52° (NE) 09:01:12 435.000
PRISM 29 Mar 08:58:48 09:01:26 17° 58° (ENE) 09:04:05 437.425
NUDT-PHONESAT 29 Mar 08:59:33 09:02:52 32° 292° (WNW) 09:06:09 437.300
SEEDS 29 Mar 09:05:08 09:08:58 33° 96° (E) 09:12:46 437.485
DOVE 4 29 Mar 09:06:52 09:11:29 31° 298° (WNW) 09:16:01 437.250
UNISAT 6 29 Mar 09:08:29 09:10:54 14° 55° (NE) 09:13:17 437.425
KAITUO 1B 29 Mar 09:11:00 09:14:04 25° 295° (WNW) 09:17:08 145.475/437.950
HO-68 29 Mar 09:11:27 09:18:30 55° 101° (ESE) 09:25:30 435.675
XW-2D 29 Mar 09:11:31 09:14:24 21° 297° (WNW) 09:17:18 145.860 - 145.880
NO-84 29 Mar 09:12:20 09:15:09 57° 342° (NNW) 09:18:01 435.350 FM
XW-2B 29 Mar 09:17:39 09:20:24 19° 297° (WNW) 09:23:08 145.730 - 145.750
CUTE 1.7 + AOD 2 29 Mar 09:17:43 09:21:55 64° 101° (E) 09:26:08 437.475
ZACube-1 29 Mar 09:26:52 09:29:29 16° 88° (E) 09:32:04 437.345
XW-2C 29 Mar 09:28:19 09:30:38 16° 300° (WNW) 09:32:56 145.795 - 145.815
CUBEBUG 2 29 Mar 09:32:19 09:36:34 44° 98° (E) 09:40:39 437.445
CUTE-I 29 Mar 09:47:33 09:51:51 25° 302° (WNW) 09:56:08 437.470
AO-73 29 Mar 09:52:47 09:56:19 25° 93° (E) 09:59:45 145.935
XW-2A 29 Mar 09:56:00 09:59:07 34° 291° (WNW) 10:02:11 145.665 - 145.685
AAUSAT CUBESAT 2 29 Mar 10:15:30 10:19:41 87° 103° (ESE) 10:23:51 437.432
FO-29 29 Mar 10:19:21 10:26:34 48° 64° (ENE) 10:33:11 435.910
AO-7 29 Mar 10:20:38 10:21:42 10° 348° (NNW) 10:22:46 .
UWE-3 29 Mar 10:28:22 10:32:43 83° 285° (WNW) 10:36:56 435.000/436.395/437.385
PCSat 29 Mar 10:29:41 10:34:59 59° 120° (ESE) 10:40:21 145.827
TIGRISAT 29 Mar 10:31:09 10:35:44 60° 71° (ENE) 10:40:18 435.000
PRISM 29 Mar 10:32:12 10:36:16 67° 258° (WSW) 10:40:23 437.425
YUBILEINY 29 Mar 10:35:15 10:42:57 34° 299° (WNW) 10:50:42 435.215
SEEDS 29 Mar 10:40:56 10:44:36 30° 294° (WNW) 10:48:17 437.485
UNISAT 6 29 Mar 10:42:13 10:46:54 80° 75° (ENE) 10:51:32 437.425
Oscar 11 29 Mar 10:48:32 10:52:52 76° 104° (ESE) 10:57:09 .
NO-84 29 Mar 10:50:17 10:52:59 37° 3° (N) 10:55:50 435.350 FM
CUTE 1.7 + AOD 2 29 Mar 10:54:30 10:57:21 18° 300° (WNW) 11:00:12 437.475
HO-68 29 Mar 10:59:30 11:06:03 40° 302° (WNW) 11:12:36 435.675
ZACube-1 29 Mar 11:02:02 11:06:15 64° 287° (WNW) 11:10:22 437.345
POLYITAN 1 29 Mar 11:04:17 11:07:00 17° 58° (ENE) 11:09:43 437.675
DELFI C3 29 Mar 11:06:46 11:10:33 39° 98° (E) 11:14:19 145.870
QB50P2 29 Mar 11:08:43 11:11:43 19° 59° (ENE) 11:14:45 145.880/145.840
CUBEBUG 2 29 Mar 11:09:21 11:12:59 25° 298° (WNW) 11:16:30 437.445
RS-15 29 Mar 11:10:26 11:15:18 13° 89° (E) 11:20:12 29.354- 29.394
DUCHIFAT 1 29 Mar 11:16:05 11:18:56 18° 59° (ENE) 11:21:48 145.980
AIST 2D 29 Mar 11:27:34 11:30:44 31° 68° (ENE) 11:33:54 435.315
AO-73 29 Mar 11:28:45 11:32:41 39° 292° (WNW) 11:36:33 145.935
LO-87 29 Mar 11:44:33 11:46:31 14° 89° (E) 11:48:27 145.935 - 145.965
AAUSAT CUBESAT 2 29 Mar 11:52:26 11:54:33 14° 303° (WNW) 11:56:40 437.432
ESTCUBE 1 29 Mar 12:01:54 12:04:21 14° 88° (E) 12:06:46 437.505/2401.250
NANOSAT C BR1 29 Mar 12:02:22 12:06:27 47° 69° (ENE) 12:10:34 145.865
FO-29 29 Mar 12:04:13 12:11:36 48° 262° (W) 12:18:26 435.910
UWE-3 29 Mar 12:06:29 12:08:28 13° 305° (NW) 12:10:24 435.000/436.395/437.385
AO-7 29 Mar 12:08:46 12:10:48 11° 16° (NNE) 12:12:51 .
EO-79 29 Mar 12:08:54 12:13:06 58° 71° (ENE) 12:17:20 145.935-145.965
TIGRISAT 29 Mar 12:09:20 12:12:47 20° 270° (W) 12:16:13 435.000
Oscar 19 29 Mar 12:10:11 12:12:17 13° 49° (NE) 12:14:24 437.125/150
PCSat 29 Mar 12:13:43 12:18:41 35° 322° (NW) 12:23:43 145.827
UNISAT 6 29 Mar 12:21:26 12:24:10 15° 272° (W) 12:26:53 437.425
Oscar 11 29 Mar 12:25:49 12:28:29 16° 302° (WNW) 12:31:07 .
NO-84 29 Mar 12:27:48 12:30:46 82° 23° (NNE) 12:33:56 435.350 FM
POLYITAN 1 29 Mar 12:38:00 12:42:17 74° 257° (WSW) 12:46:36 437.675
ZACube-1 29 Mar 12:41:28 12:41:40 10° 308° (NW) 12:41:52 437.345
DELFI C3 29 Mar 12:41:57 12:45:11 24° 296° (WNW) 12:48:25 145.870
QB50P2 29 Mar 12:42:52 12:47:07 62° 259° (WSW) 12:51:23 145.880/145.840
HO-68 29 Mar 12:49:08 12:51:57 13° 325° (NW) 12:54:47 435.675
Gurwin Techsat 1B 29 Mar 12:49:13 12:52:25 16° 52° (NE) 12:55:38 435.225
DUCHIFAT 1 29 Mar 12:49:56 12:54:10 67° 258° (WSW) 12:58:26 145.980
BUGSAT 1 29 Mar 12:52:48 12:56:55 51° 70° (ENE) 13:01:04 437.445
VELOX 1 29 Mar 12:59:56 13:02:52 17° 89° (E) 13:05:48 145.980
AIST 2D 29 Mar 13:01:11 13:04:01 22° 266° (W) 13:06:53 435.315
RS-15 29 Mar 13:13:05 13:24:32 53° 114° (ESE) 13:36:16 29.354- 29.394
LO-87 29 Mar 13:16:44 13:20:20 58° 288° (WNW) 13:23:55 145.935 - 145.965
SPROUT 29 Mar 13:19:10 13:22:34 22° 92° (E) 13:25:56 437.525
ESTCUBE 1 29 Mar 13:37:12 13:41:44 81° 287° (WNW) 13:46:16 437.505/2401.250
NANOSAT C BR1 29 Mar 13:39:04 13:42:24 22° 268° (W) 13:45:46 145.865
Oscar 19 29 Mar 13:45:36 13:50:37 60° 69° (ENE) 13:55:41 437.125/150
EO-79 29 Mar 13:46:17 13:49:14 18° 270° (W) 13:52:13 145.935-145.965
AO-7 29 Mar 13:54:20 14:00:44 26° 42° (NE) 14:07:07 .
50 SAT 29 Mar 13:55:40 13:58:53 33° 97° (E) 14:02:06 437.505
PCSat 29 Mar 14:00:16 14:03:42 17° 347° (NNW) 14:07:09 145.827
DX 1 29 Mar 14:01:41 14:05:30 28° 95° (E) 14:09:17 434.975-435.025
ITAMSAT 1 29 Mar 14:03:39 14:06:19 14° 50° (NE) 14:09:00 435.822/435.867
NO-84 29 Mar 14:05:42 14:08:03 20° 221° (SW) 14:10:32 435.350 FM
SO-50 29 Mar 14:06:53 14:08:07 11° 109° (ESE) 14:09:21 436.795
Gurwin Techsat 1B 29 Mar 14:26:15 14:31:34 78° 73° (ENE) 14:36:55 435.225
BUGSAT 1 29 Mar 14:29:23 14:32:35 20° 269° (W) 14:35:47 437.445
UKube-1 29 Mar 14:34:49 14:38:56 41° 98° (E) 14:43:03 .
VELOX 1 29 Mar 14:35:20 14:39:47 67° 288° (WNW) 14:44:13 145.980
SPROUT 29 Mar 14:54:35 14:58:43 46° 291° (WNW) 15:02:48 437.525
ESTCUBE 1 29 Mar 15:15:35 15:17:51 14° 306° (NW) 15:20:06 437.505/2401.250
RS-15 29 Mar 15:24:40 15:36:51 69° 321° (NW) 15:49:16 29.354- 29.394
Oscar 19 29 Mar 15:26:18 15:30:21 23° 269° (W) 15:34:25 437.125/150
50 SAT 29 Mar 15:29:00 15:31:47 22° 296° (WNW) 15:34:33 437.505
DX 1 29 Mar 15:37:41 15:41:47 39° 294° (WNW) 15:45:53 434.975-435.025
ITAMSAT 1 29 Mar 15:39:42 15:44:53 67° 70° (ENE) 15:50:06 435.822/435.867
SO-50 29 Mar 15:43:09 15:47:44 66° 128° (SE) 15:52:17 436.795
AO-7 29 Mar 15:44:03 15:52:22 76° 65° (ENE) 16:00:40 .
PCSat 29 Mar 15:45:51 15:49:19 17° 13° (NNE) 15:52:46 145.827
BEESAT 29 Mar 15:57:17 16:01:20 27° 94° (E) 16:05:21 436.000
Gurwin Techsat 1B 29 Mar 16:08:27 16:12:08 19° 271° (W) 16:15:51 435.225
UKube-1 29 Mar 16:11:10 16:14:49 27° 298° (WNW) 16:18:28 .
VELOX 1 29 Mar 16:13:52 16:15:25 12° 308° (NW) 16:16:58 145.980
ITUPSAT 1 29 Mar 16:15:37 16:20:04 37° 97° (E) 16:24:29 437.325
O/OREOS (USA 219) 29 Mar 16:36:05 16:39:03 17° 100° (E) 16:42:02 437.305
YUBILEINY 29 Mar 16:44:49 16:49:08 14° 41° (NE) 16:53:25 435.215
DOVE 4 29 Mar 17:03:52 17:06:50 16° 53° (NE) 17:09:52 437.250
MOZHAYETS 4 29 Mar 17:20:51 17:25:26 72° 102° (ESE) 17:29:58
ITAMSAT 1 29 Mar 17:20:52 17:24:49 21° 269° (W) 17:28:49 435.822/435.867
SO-50 29 Mar 17:24:27 17:28:33 30° 328° (NNW) 17:32:37 436.795
PCSat 29 Mar 17:29:16 17:34:18 36° 38° (NE) 17:39:18 145.827
BEESAT 29 Mar 17:34:46 17:39:19 46° 293° (WNW) 17:43:51 436.000
AO-7 29 Mar 17:38:46 17:45:54 31° 267° (W) 17:53:04 .
RS-15 29 Mar 17:40:14 17:51:53 44° 353° (N) 18:03:32 29.354- 29.394
ITUPSAT 1 29 Mar 17:53:35 17:57:52 34° 296° (WNW) 18:02:07 437.325
CUTE-I 29 Mar 17:54:54 17:59:34 31° 61° (ENE) 18:04:15 437.470
XW-2F 29 Mar 17:55:21 17:58:15 21° 64° (ENE) 18:01:10 145.980 - 146.000
HO-68 29 Mar 18:00:44 18:05:35 20° 44° (NE) 18:10:26 435.675
LilacSat-2 29 Mar 18:02:45 18:05:59 27° 66° (ENE) 18:09:13 437.200
NUDT-PHONESAT 29 Mar 18:10:06 18:13:11 25° 65° (ENE) 18:16:16 437.300
O/OREOS (USA 219) 29 Mar 18:13:23 18:17:56 71° 301° (WNW) 18:22:32 437.305
KKS-1 29 Mar 18:13:31 18:17:57 55° 101° (ESE) 18:22:20 437.445
KAITUO 1B 29 Mar 18:21:37 18:24:58 32° 68° (ENE) 18:28:20 145.475/437.950
CUBESAT XI-V 29 Mar 18:22:19 18:26:54 56° 100° (E) 18:31:30 437.345
XW-2D 29 Mar 18:22:46 18:26:21 41° 70° (ENE) 18:29:56 145.860 - 145.880
XW-2B 29 Mar 18:28:44 18:32:22 46° 71° (ENE) 18:36:01 145.730 - 145.750
DOVE 4 29 Mar 18:38:49 18:43:41 81° 73° (ENE) 18:48:52 437.250
XW-2C 29 Mar 18:38:58 18:42:43 60° 72° (ENE) 18:46:27 145.795 - 145.815
STARS 29 Mar 18:39:50 18:44:08 47° 100° (E) 18:48:23 437.465
YUBILEINY 29 Mar 18:40:20 18:48:43 48° 69° (ENE) 18:57:03 435.215
CUTE 1.7 + AOD 2 29 Mar 18:42:04 18:43:58 13° 56° (NE) 18:45:54 437.475
